SSEC Globe Logo

Space Science and Engineering Center

Wisconsin State Observations

ASUS43 KMKX 161320                                              2018350 1320
RWRWI
WISCONSIN REGIONAL WEATHER ROUNDUP
NATIONAL WEATHER SERVICE MILWAUKEE/SULLIVAN WI
NOTE: "FAIR" INDICATES FEW OR NO CLOUDS BELOW 12,000 FEET WITH NO
SIGNIFICANT WEATHER AND/OR OBSTRUCTIONS TO VISIBILITY.

CITY           SKY/WX    TMP DP  RH WIND       PRES   REMARKS
SUPERIOR ARPT  FAIR      29  25  83 SW9       29.96R WCI  21
ASHLAND        FAIR      33  26  75 SW12      29.95S WCI  24
HAYWARD        FAIR      29  23  78 SW3       29.98S
SIREN          FAIR      32  26  77 W6        30.01R WCI  27
CUMBERLAND     FAIR      28  23  80 CALM      30.01R
RICE LAKE      FAIR      25  23  93 CALM      30.02S
CHETEK         FAIR      28  25  87 CALM      30.02S
LADYSMITH      FAIR      28  24  85 S5        30.02R WCI  22
EAU CLAIRE     FAIR      28  23  81 SW5       30.03S WCI  23
MENOMONIE      FAIR      21  18  88 CALM      30.05R
NEW RICHMOND   FAIR      29  24  83 SW7       30.04S WCI  21
OSCEOLA        FAIR      29  26  88 SW3       30.07R


CITY           SKY/WX    TMP DP  RH WIND       PRES   REMARKS
MANITOWISH WTR FAIR      29  23  79 SW3       29.94S
ARBOR VITAE    FAIR      25  22  89 S5        29.94F WCI  19
WOODRUFF       FAIR      25  22  89 S5        29.94F WCI  19
RHINELANDER    FAIR      28  20  71 SW6       29.97S WCI  22
EAGLE RIVER    FAIR      28  21  76 CALM      29.94F
LAND O LAKES   FAIR      28  23  79 CALM      29.95S
PHILLIPS       FAIR      24  21  87 CALM      29.97S
TOMAHAWK       FAIR      20  17  90 CALM      29.98S
MEDFORD        FAIR      28  22  79 W7        29.99S WCI  21
MERRILL        FAIR      19  18  96 CALM      30.00S FOG


CITY           SKY/WX    TMP DP  RH WIND       PRES   REMARKS
WAUSAU         FAIR      26  23  88 CALM      30.00S
MOSINEE        PTCLDY    23  23 100 SW5       30.02S WCI  17
MARSHFIELD     FAIR      23  21  92 SW6       30.01R WCI  16
STEVENS POINT    N/A     19  19 100 SW3       30.04R FOG
WAUPACA        FAIR      24  22  93 CALM      30.04F FOG
WAUTOMA        FAIR      16  14  92 CALM      30.06S
WISC RAPIDS    FOG       21  17  84 SW3       30.05R VSB 1
CAMP DOUGLAS   FAIR      21  21 100 CALM      30.05S FOG


CITY           SKY/WX    TMP DP  RH WIND       PRES   REMARKS
ANTIGO         FAIR      24  23  96 CALM      29.99S
SHAWANO        FAIR      27  25  93 CALM      30.02F
OCONTO         FAIR      24  23  96 CALM      30.03F
STURGEON BAY   FAIR      30  29  96 SW7       30.03F WCI  23
GREEN BAY      FAIR      28  25  88 CALM      30.04F
MANITOWOC      FOG       28  27  93 CALM      30.05F VSB 1/4
APPLETON       PTCLDY    27  27 100 W6        30.03S WCI  20
CLINTONVILLE   FAIR      26  24  93 SW3       30.03F
OSHKOSH        FAIR      32  27  81 CALM      30.05R


CITY           SKY/WX    TMP DP  RH WIND       PRES   REMARKS
LA CROSSE      FAIR      29  23  78 S5        30.08R WCI  24
SPARTA         FAIR      20  19  98 CALM      30.07S
VIROQUA          N/A     29  27  90 W5        30.06R WCI  24
BOSCOBEL       FAIR      20  17  88 CALM      30.10S
PRAIRIE DU CHI FAIR      25  23  91 CALM      30.09F
PLATTEVILLE    FAIR      29  29 100 SW5       30.09S WCI  24

CITY           SKY/WX    TMP DP  RH WIND       PRES   REMARKS
REEDSBURG      FAIR      27  26  98 SW3       30.07S
BARABOO/DELLS  FAIR      31  26  83 SW7       30.06F WCI  24
LONE ROCK      FAIR      21  20  96 CALM      30.10R
MINERAL POINT  FAIR      32  32 100 CALM      30.08R
MADISON        FAIR      24  22  91 VRB3      30.08S
MIDDLETON      FAIR      35  29  80 W8        30.08S WCI  28
WATERTOWN      FAIR      20  20 100 CALM      30.07S FOG
MONROE         FAIR      29  27  92 MISG      30.08S
JANESVILLE     PTCLDY    27  27 100 CALM      30.10S


CITY           SKY/WX    TMP DP  RH WIND       PRES   REMARKS
MILWAUKEE      MOCLDY    27  24  89 SW5       30.07F FOG     WCI  22
WAUKESHA       CLEAR     23  23 100 CALM      30.08F FOG
MILWAUKEE/TIMM FAIR      27  23  86 CALM      30.08S FOG
RACINE         FAIR      26  24  92 SW3       30.08F FOG
KENOSHA        FAIR      27  26  96 W6        30.07F FOG     WCI  20
FOND DU LAC    FAIR      30  27  88 SW8       30.06R WCI  22
SHEBOYGAN      FAIR      26  24  92 S5        30.06R WCI  20
WEST BEND      FAIR      23  23 100 CALM      30.05F FOG
JUNEAU         FAIR      26  26  97 CALM      30.08R FOG
LSZ147-162-161400-
LAKE SUPERIOR

STATION/POSITION TIME  TEMP    WIND        PRES    WAVE
                       AIR SEA DIR/SP/G            HT/PER
                 (UTC) (F)     (DEG/KT/KT) (MB)    (FT/S)
DEVILS ISLAND    1300   37     240/ 21/ 24 1013.0R
SAXON HARBOR     1230   36     210/  9/ 11 1013.5S

LMZ867-665-643>646-161400-
LAKE MICHIGAN

STATION/POSITION TIME  TEMP    WIND        PRES    WAVE
                       AIR SEA DIR/SP/G            HT/PER
                 (UTC) (F)     (DEG/KT/KT) (MB)    (FT/S)
CHAMBERS ISLAND  1240   33     180/  7/ 13 1015.9S
NORTHPORT PIER   1240   34     170/  2/  6 1016.6S
KEWAUNEE LAKESHO 1254   32     220/  2/  5 1016.5F
SHEBOYGAN LAKESH 1300   33     210/  7/  8 1018.4F
PORT WASHINGTON  1240   28     260/  2/  3 1019.3F
MILWAUKEE LAKESH 1300   29     210/  6/  7   N/A
KENOSHA   LAKESH 1300   28     250/  5/  7 1019.0
TC  - TEMPERATURE IN CELSIUS
VSB - VISIBILITY IN STATUTE MILES
WCI - WIND CHILL INDEX
HX  - HEAT INDEX